Regional Weather Roundup
Issued by NWS

Home | Current Version | Previous Version | Text Only | Print | Product List | Glossary Off
Versions: 1 2 3 4 5 6 7 8 9 10 11 12 13 14 15 16 17 18 19 20 21 22 23 24 25 26 27 28 29 30 31 32 33 34 35 36 37 38 39 40 41 42 43 44 45 46 47 48 49 50

000
ASUS45 KCYS 011210
RWRWY

WYOMING REGIONAL WEATHER ROUNDUP
NATIONAL WEATHER SERVICE CHEYENNE WY
600 AM MDT SAT AUG 01 2015

NOTE:  "FAIR" INDICATES FEW OR NO CLOUDS BELOW 12,000 FEET
WITH NO SIGNIFICANT WEATHER AND/OR OBSTRUCTIONS TO VISIBILITY.

WYZ001-011300-
YELLOWSTONE NATIONAL PARK

CITY           SKY/WX    TMP DP  RH WIND       PRES   REMARKS
LK YELLOWSTONE   N/A     36  30  79 CALM      30.43S
6HR MIN TEMP:  36; 6HR MAX TEMP:  48;

W YELLOWSTONE  NOT AVBL

$$
WYZ002>013-054>058-071-098>099-011300-
NORTHERN WYOMING

CITY           SKY/WX    TMP DP  RH WIND       PRES   REMARKS
JACKSON        NOT AVBL
CODY           FAIR      64  30  27 SW5       30.18S
GREYBULL       FAIR      59  37  44 SE6       30.10R
6HR MIN TEMP:  58; 6HR MAX TEMP:  79;

WORLAND        FAIR      55  30  38 CALM      30.11S
6HR MIN TEMP:  55; 6HR MAX TEMP:  67;

SHERIDAN       FAIR      52  42  69 SW3       30.10S
6HR MIN TEMP:  52; 6HR MAX TEMP:  70;

BUFFALO        FAIR      64  37  36 W9        30.16S
6HR MIN TEMP:  64; 6HR MAX TEMP:  70;

GILLETTE       FAIR      62  49  62 CALM      30.10R
6HR MIN TEMP:  61; 6HR MAX TEMP:  71;

HULETT         FAIR      64  50  59 W5        30.08S
NEWCASTLE      FAIR      61  46  59 NW3       30.09R

$$
WYZ014>020-022>026-101>103-011300-
CENTRAL WYOMING

CITY           SKY/WX    TMP DP  RH WIND       PRES   REMARKS
BIG PINEY      FAIR      48  31  51 CALM      30.33R
6HR MIN TEMP:  47; 6HR MAX TEMP:  60;

PINEDALE       FAIR      41  34  75 W6        30.33S
DUBOIS         FAIR      46  30  53 NW10      30.35S
LANDER         FAIR      60  30  32 CALM      30.21R
6HR MIN TEMP:  59; 6HR MAX TEMP:  72;

RIVERTON       FAIR      60  33  36 NW9       30.21R
6HR MIN TEMP:  60; 6HR MAX TEMP:  73;

CASPER         FAIR      54  39  57 W6        30.18S
6HR MIN TEMP:  51; 6HR MAX TEMP:  69;

DOUGLAS        FAIR      55  47  74 NW6       30.16R
6HR MIN TEMP:  55; 6HR MAX TEMP:  71;


$$
WYZ021-027>030-104>119-011300-
SOUTHERN WYOMING

CITY           SKY/WX    TMP DP  RH WIND       PRES   REMARKS
EVANSTON       FAIR      56  27  32 SE6       30.32S
6HR MIN TEMP:  53; 6HR MAX TEMP:  68;

KEMMERER       FAIR      48  32  53 NW10      30.34R
FORT BRIDGER   SUNNY     61  27  27 W8        30.34S
ROCK SPRINGS   FAIR      56  27  32 S5        30.29R
6HR MIN TEMP:  56; 6HR MAX TEMP:  65;

DIXON          FAIR      48  32  53 CALM      30.30S
RAWLINS        FAIR      47  36  65 N6        30.27S
6HR MIN TEMP:  46; 6HR MAX TEMP:  60;

SARATOGA       FAIR      52  39  62 S12       30.30S
LARAMIE        FAIR      50  44  80 S8        30.31R
6HR MIN TEMP:  47; 6HR MAX TEMP:  60;

CHEYENNE       FAIR      53  48  83 W6        30.23S
6HR MIN TEMP:  53; 6HR MAX TEMP:  66;

TORRINGTON     FAIR      58  52  80 SE5       30.09S
6HR MIN TEMP:  58; 6HR MAX TEMP:  66;

PINE BLUFFS    FAIR      57  54  88 SW7       30.19S

$$


USA.gov is the U.S. government's official web portal to all federal, state and local government web resources and services.